DW0664 Weather Reports


Display with metric or nautical units.
time (UTC)temp
F
wind
direction
speed
MPH
gust
MPH
rain 1hr
in
rain 24hr
in
rain mn
in
humidity
%
barometer
mb
20260831195048 101 95 1.0 6.0 0.00 0.00 0.00 38 1017.5
20260831194543 100 107 2.0 4.0 0.00 0.00 0.00 39 1017.4
20260831194038 101 79 1.0 2.0 0.00 0.00 0.00 39 1017.6
20260831193533 100 59 0.0 2.0 0.00 0.00 0.00 40 1017.5
20260831193028 98 37 1.0 1.0 0.00 0.00 0.00 40 1017.7
20260831192523 98 92 0.0 1.0 0.00 0.00 0.00 43 1017.9
20260831192018 98 279 2.0 4.0 0.00 0.00 0.00 41 1018.0
20260831191514 102 79 2.0 7.0 0.00 0.00 0.00 40 1018.1
20260831191010 101 20 0.0 4.0 0.00 0.00 0.00 38 1018.0
20260831190506 100 71 2.0 8.0 0.00 0.00 0.00 40 1018.2
20260831190004 100 61 1.0 6.0 0.00 0.00 0.00 42 1018.1
20260831185500 99 60 0.0 2.0 0.00 0.00 0.00 43 1018.2
20260831185000 100 102 2.0 3.0 0.00 0.00 0.00 41 1018.3
20260831184454 98 94 1.0 3.0 0.00 0.00 0.00 43 1018.4
20260831183950 98 72 1.0 4.0 0.00 0.00 0.00 43 1018.4
20260831183449 100 57 1.0 2.0 0.00 0.00 0.00 41 1018.4
20260831182949 99 106 1.0 4.0 0.00 0.00 0.00 43 1018.5
20260831182444 99 65 1.0 6.0 0.00 0.00 0.00 44 1018.6
20260831181940 99 55 1.0 2.0 0.00 0.00 0.00 43 1018.6
20260831181435 98 101 4.0 6.0 0.00 0.00 0.00 43 1018.7
20260831180935 98 90 1.0 6.0 0.00 0.00 0.00 43 1018.8
20260831180429 99 100 1.0 2.0 0.00 0.00 0.00 43 1018.9
20260831175929 98 94 1.0 9.0 0.00 0.00 0.00 42 1019.0
20260831175426 98 79 1.0 2.0 0.00 0.00 0.00 43 1019.0
20260831174921 97 71 0.0 2.0 0.00 0.00 0.00 46 1018.8
20260831174416 97 124 2.0 3.0 0.00 0.00 0.00 44 1019.0
20260831173916 96 71 1.0 3.0 0.00 0.00 0.00 45 1019.1
20260831173415 97 58 1.0 2.0 0.00 0.00 0.00 44 1019.3
20260831172910 96 87 3.0 6.0 0.00 0.00 0.00 46 1019.2
20260831172406 97 56 1.0 2.0 0.00 0.00 0.00 46 1019.2
20260831171906 96 56 0.0 3.0 0.00 0.00 0.00 49 1019.3
20260831171402 95 100 0.0 4.0 0.00 0.00 0.00 51 1019.5
20260831170859 95 67 0.0 1.0 0.00 0.00 0.00 52 1019.5
20260831170354 94 65 0.0 1.0 0.00 0.00 0.00 53 1019.5
20260831165851 94 79 1.0 3.0 0.00 0.00 0.00 55 1019.5
20260831165347 94 63 0.0 1.0 0.00 0.00 0.00 54 1019.7
20260831164843 95 9 1.0 3.0 0.00 0.00 0.00 53 1019.5
20260831164339 95 61 1.0 2.0 0.00 0.00 0.00 54 1019.5
20260831163834 94 120 2.0 3.0 0.00 0.00 0.00 55 1019.5
20260831163330 94 75 1.0 2.0 0.00 0.00 0.00 52 1019.8
20260831162828 94 43 0.0 1.0 0.00 0.00 0.00 53 1019.8
20260831162324 93 136 1.0 2.0 0.00 0.00 0.00 54 1019.7
20260831161822 93 59 0.0 1.0 0.00 0.00 0.00 55 1019.7
20260831161319 92 35 1.0 2.0 0.00 0.00 0.00 57 1019.8
20260831160813 92 183 2.0 2.0 0.00 0.00 0.00 59 1019.7
20260831160308 92 299 1.0 2.0 0.00 0.00 0.00 59 1019.6
20260831155808 91 43 1.0 2.0 0.00 0.00 0.00 58 1019.7
20260831155306 91 92 1.0 1.0 0.00 0.00 0.00 62 1019.6
20260831154759 91 59 0.0 1.0 0.00 0.00 0.00 61 1019.6
20260831154255 90 30 0.0 1.0 0.00 0.00 0.00 62 1019.5
20260831153753 89 11 1.0 2.0 0.00 0.00 0.00 65 1019.7
20260831153249 89 344 1.0 3.0 0.00 0.00 0.00 67 1019.6
20260831152745 89 50 0.0 2.0 0.00 0.00 0.00 68 1019.4
20260831152241 89 107 1.0 2.0 0.00 0.00 0.00 69 1019.6
20260831151741 89 58 1.0 2.0 0.00 0.00 0.00 68 1019.4
20260831151240 90 354 2.0 2.0 0.00 0.00 0.00 70 1019.5
20260831150736 89 21 1.0 1.0 0.00 0.00 0.00 70 1019.4
20260831150231 90 100 1.0 2.0 0.00 0.00 0.00 70 1019.6
20260831145730 90 83 0.0 1.0 0.00 0.00 0.00 69 1019.6
20260831145227 89 86 1.0 3.0 0.00 0.00 0.00 69 1019.5
20260831144722 89 32 0.0 1.0 0.00 0.00 0.00 70 1019.5
20260831144219 88 61 0.0 1.0 0.00 0.00 0.00 74 1019.3
20260831143718 87 345 0.0 1.0 0.00 0.00 0.00 75 1019.3
20260831143213 87 55 0.0 1.0 0.00 0.00 0.00 77 1019.5
20260831142709 86 84 1.0 1.0 0.00 0.00 0.00 77 1019.4
20260831142204 87 52 0.0 1.0 0.00 0.00 0.00 77 1019.3
20260831141703 87 100 0.0 1.0 0.00 0.00 0.00 76 1019.3
20260831141158 87 75 0.0 1.0 0.00 0.00 0.00 78 1019.1
20260831140658 86 54 0.0 0.0 0.00 0.00 0.00 79 1019.1
20260831140153 85 66 0.0 1.0 0.00 0.00 0.00 81 1019.3
20260831135650 84 87 0.0 1.0 0.00 0.00 0.00 82 1019.3
20260831135147 84 64 0.0 0.0 0.00 0.00 0.00 83 1019.1
20260831134642 83 77 0.0 0.0 0.00 0.00 0.00 84 1019.2
20260831134138 81 67 0.0 0.0 0.00 0.00 0.00 89 1019.0
20260831133637 80 65 0.0 1.0 0.00 0.00 0.00 90 1018.9
20260831133132 79 70 0.0 1.0 0.00 0.00 0.00 92 1019.0
20260831132628 79 58 0.0 0.0 0.00 0.00 0.00 93 1018.9
20260831132126 79 59 0.0 0.0 0.00 0.00 0.00 94 1018.8
20260831131621 78 69 0.0 0.0 0.00 0.00 0.00 94 1018.5
20260831131118 78 65 0.0 1.0 0.00 0.00 0.00 95 1018.8
20260831130613 78 62 0.0 0.0 0.00 0.00 0.00 95 1018.6
20260831130109 77 64 0.0 0.0 0.00 0.00 0.00 95 1018.5
20260831125607 77 57 0.0 0.0 0.00 0.00 0.00 95 1018.5
20260831125103 77 56 0.0 0.0 0.00 0.00 0.00 95 1018.6
20260831124559 77 58 0.0 0.0 0.00 0.00 0.00 95 1018.3
20260831124054 76 57 0.0 0.0 0.00 0.00 0.00 95 1018.6
20260831123553 76 61 0.0 0.0 0.00 0.00 0.00 95 1018.4
20260831123048 76 59 0.0 0.0 0.00 0.00 0.00 95 1018.4
20260831122543 76 61 0.0 0.0 0.00 0.00 0.00 95 1018.3
20260831122038 76 61 0.0 0.0 0.00 0.00 0.00 95 1018.3
20260831121532 76 61 0.0 0.0 0.00 0.00 0.00 94 1018.2
20260831121029 76 62 0.0 0.0 0.00 0.00 0.00 94 1018.1
20260831120527 76 60 0.0 0.0 0.00 0.00 0.00 94 1018.1
20260831120023 76 57 0.0 0.0 0.00 0.00 0.00 94 1018.1
20260831115519 76 56 0.0 0.0 0.00 0.00 0.00 94 1018.0
20260831115014 76 53 0.0 0.0 0.00 0.00 0.00 94 1018.0
20260831114513 76 59 0.0 0.0 0.00 0.00 0.00 94 1018.2
20260831114008 76 64 0.0 0.0 0.00 0.00 0.00 93 1018.1
20260831113508 77 63 0.0 0.0 0.00 0.00 0.00 93 1018.1
20260831113004 77 69 0.0 0.0 0.00 0.00 0.00 93 1018.0
20260831112503 77 59 0.0 0.0 0.00 0.00 0.00 93 1017.9
20260831111958 77 53 0.0 0.0 0.00 0.00 0.00 93 1018.0
20260831111454 77 59 0.0 0.0 0.00 0.00 0.00 93 1018.1
20260831110949 77 59 0.0 0.0 0.00 0.00 0.00 93 1017.9
20260831110444 77 59 0.0 1.0 0.00 0.00 0.00 93 1018.0
20260831105943 77 58 0.0 0.0 0.00 0.00 0.00 92 1018.0
20260831105439 77 70 0.0 0.0 0.00 0.00 0.00 92 1018.0
20260831104939 77 65 0.0 0.0 0.00 0.00 0.00 92 1017.9
20260831104435 77 65 0.0 1.0 0.00 0.00 0.00 92 1017.8
20260831103931 77 64 0.0 0.0 0.00 0.00 0.00 92 1017.8
20260831103426 77 63 0.0 0.0 0.00 0.00 0.00 91 1017.7
20260831102922 77 69 0.0 0.0 0.00 0.00 0.00 91 1017.9
20260831102421 77 63 0.0 0.0 0.00 0.00 0.00 91 1017.9
20260831101917 77 59 0.0 0.0 0.00 0.00 0.00 91 1018.0
20260831101412 77 69 0.0 0.0 0.00 0.00 0.00 91 1018.0
20260831100908 77 66 0.0 0.0 0.00 0.00 0.00 90 1018.0
20260831100404 78 68 0.0 0.0 0.00 0.00 0.00 90 1018.0
20260831095904 78 63 0.0 1.0 0.00 0.00 0.00 90 1017.9
20260831095403 78 63 0.0 0.0 0.00 0.00 0.00 90 1017.7
20260831094858 78 82 0.0 1.0 0.00 0.00 0.00 90 1017.8
20260831094348 78 70 0.0 0.0 0.00 0.00 0.00 89 1017.5
20260831093844 78 67 0.0 0.0 0.00 0.00 0.00 89 1017.8
20260831093339 78 74 0.0 1.0 0.00 0.00 0.00 89 1017.5
20260831092835 78 67 1.0 1.0 0.00 0.00 0.00 88 1017.7
20260831092331 78 312 0.0 1.0 0.00 0.00 0.00 88 1017.5
20260831091825 78 46 0.0 2.0 0.00 0.00 0.00 88 1017.7
20260831091316 78 57 0.0 0.0 0.00 0.00 0.00 88 1017.7
20260831090811 78 23 1.0 2.0 0.00 0.00 0.00 88 1017.6
20260831090307 78 63 0.0 0.0 0.00 0.00 0.00 88 1017.6
20260831085803 78 58 0.0 0.0 0.00 0.00 0.00 87 1017.8
20260831085258 78 65 0.0 2.0 0.00 0.00 0.00 87 1017.6
20260831084757 78 65 0.0 1.0 0.00 0.00 0.00 87 1017.5
20260831084253 79 57 0.0 1.0 0.00 0.00 0.00 87 1017.7
20260831083749 79 63 0.0 1.0 0.00 0.00 0.00 87 1017.7
20260831083245 79 52 0.0 0.0 0.00 0.00 0.00 86 1017.6
20260831082743 79 78 0.0 0.0 0.00 0.00 0.00 86 1017.6
20260831082238 79 66 0.0 2.0 0.00 0.00 0.00 86 1017.6
20260831081734 79 89 1.0 1.0 0.00 0.00 0.00 86 1017.6
20260831081231 79 65 0.0 0.0 0.00 0.00 0.00 85 1017.6
20260831080726 79 99 0.0 1.0 0.00 0.00 0.00 85 1017.8
20260831080225 79 64 0.0 1.0 0.00 0.00 0.00 85 1017.8
20260831075721 79 84 0.0 2.0 0.00 0.00 0.00 84 1017.7
20260831075217 79 76 1.0 1.0 0.00 0.00 0.00 84 1017.8
20260831074716 79 66 0.0 2.0 0.00 0.00 0.00 84 1017.8
20260831074210 80 66 0.0 1.0 0.00 0.00 0.00 83 1017.8
20260831073706 80 66 0.0 2.0 0.00 0.00 0.00 83 1017.8
20260831073205 80 72 0.0 1.0 0.00 0.00 0.00 83 1017.8
20260831072700 80 76 0.0 1.0 0.00 0.00 0.00 83 1017.8
20260831072156 80 59 0.0 0.0 0.00 0.00 0.00 83 1017.9
20260831071656 80 38 0.0 1.0 0.00 0.00 0.00 83 1017.8
20260831071150 80 76 0.0 1.0 0.00 0.00 0.00 83 1017.9
20260831070650 80 80 0.0 0.0 0.00 0.00 0.00 82 1018.0
20260831070145 80 98 1.0 1.0 0.00 0.00 0.00 82 1017.9
20260831065644 80 77 0.0 1.0 0.00 0.00 0.00 81 1017.9
20260831065143 80 68 0.0 1.0 0.00 0.00 0.00 81 1018.0
20260831064637 80 70 0.0 0.0 0.00 0.00 0.00 81 1018.1
20260831064133 81 61 0.0 1.0 0.00 0.00 0.00 80 1018.2
20260831063629 81 73 0.0 1.0 0.00 0.00 0.00 80 1018.1
20260831063124 81 73 0.0 1.0 0.00 0.00 0.00 80 1018.1
20260831062624 81 91 0.0 1.0 0.00 0.00 0.00 80 1018.2
20260831062124 81 79 1.0 2.0 0.00 0.00 0.00 79 1018.2
20260831061622 81 70 0.0 1.0 0.00 0.00 0.00 78 1018.0
20260831061118 82 70 0.0 0.0 0.00 0.00 0.00 78 1018.1
20260831060614 82 72 0.0 3.0 0.00 0.00 0.00 78 1018.3
20260831060109 82 90 0.0 2.0 0.00 0.00 0.00 77 1018.0
20260831055608 82 81 1.0 2.0 0.00 0.00 0.00 77 1017.9
20260831055104 82 70 1.0 2.0 0.00 0.00 0.00 77 1018.2
20260831054603 82 101 0.0 1.0 0.00 0.00 0.00 77 1018.1
20260831054102 82 87 1.0 1.0 0.00 0.00 0.00 76 1018.1
20260831053602 82 79 1.0 2.0 0.00 0.00 0.00 76 1018.0
20260831053056 83 68 1.0 2.0 0.00 0.00 0.00 76 1017.8
20260831052555 83 68 0.0 2.0 0.00 0.00 0.00 75 1017.9
20260831052055 83 119 1.0 2.0 0.00 0.00 0.00 75 1017.7
20260831051553 83 81 0.0 2.0 0.00 0.00 0.00 74 1018.0
20260831051053 83 79 0.0 1.0 0.00 0.00 0.00 74 1017.8
20260831050553 84 98 0.0 2.0 0.00 0.00 0.00 74 1017.7
20260831050051 84 79 0.0 2.0 0.00 0.00 0.00 73 1017.7
20260831045551 84 66 0.0 1.0 0.00 0.00 0.00 73 1017.7
20260831045051 84 92 1.0 1.0 0.00 0.00 0.00 73 1017.8
20260831044547 84 62 0.0 1.0 0.00 0.00 0.00 73 1017.5
20260831044042 84 65 0.0 1.0 0.00 0.00 0.00 72 1017.7
20260831043537 84 79 1.0 1.0 0.00 0.00 0.00 72 1017.5
20260831043032 85 135 1.0 3.0 0.00 0.00 0.00 71 1017.6
20260831042532 85 106 1.0 3.0 0.00 0.00 0.00 71 1017.6
20260831042032 85 77 0.0 2.0 0.00 0.00 0.00 70 1017.4
20260831041522 85 86 0.0 2.0 0.00 0.00 0.00 70 1017.6
20260831041021 85 74 1.0 7.0 0.00 0.00 0.00 69 1017.4
20260831040516 85 71 2.0 4.0 0.00 0.00 0.00 69 1017.7
20260831040015 85 100 1.0 1.0 0.00 0.00 0.00 69 1017.2
20260831035513 86 82 0.0 2.0 0.00 0.00 0.00 68 1017.4
20260831035009 86 93 1.0 3.0 0.00 0.00 0.00 67 1017.4
20260831034503 86 155 1.0 1.0 0.00 0.00 0.00 66 1017.3
20260831033958 86 95 1.0 2.0 0.00 0.00 0.00 65 1017.3
20260831033454 86 63 1.0 2.0 0.00 0.00 0.00 65 1017.0
20260831032949 86 87 2.0 2.0 0.00 0.00 0.00 64 1016.9
20260831032443 87 76 1.0 2.0 0.00 0.00 0.00 63 1017.1
20260831031938 87 126 1.0 2.0 0.00 0.00 0.00 62 1017.1
20260831031433 87 70 0.0 4.0 0.00 0.00 0.00 61 1016.9
20260831030932 87 75 1.0 3.0 0.00 0.00 0.00 60 1016.9
20260831030432 87 75 1.0 2.0 0.00 0.00 0.00 59 1016.7
20260831025930 87 69 0.0 1.0 0.00 0.00 0.00 57 1016.7
20260831025429 87 68 1.0 1.0 0.00 0.00 0.00 56 1016.6
20260831024925 88 66 0.0 0.0 0.00 0.00 0.00 55 1016.5
20260831024424 88 64 2.0 2.0 0.00 0.00 0.00 54 1016.5
20260831023919 89 78 1.0 3.0 0.00 0.00 0.00 53 1016.3
20260831023418 89 69 0.0 2.0 0.00 0.00 0.00 52 1016.6
20260831022913 89 64 0.0 3.0 0.00 0.00 0.00 51 1016.2
20260831022412 89 86 1.0 2.0 0.00 0.00 0.00 50 1016.2
20260831021907 90 125 1.0 2.0 0.00 0.00 0.00 49 1016.3
20260831021406 90 114 2.0 2.0 0.00 0.00 0.00 49 1015.8
20260831020902 89 73 0.0 1.0 0.00 0.00 0.00 50 1015.9
20260831020401 90 65 0.0 1.0 0.00 0.00 0.00 50 1015.9
20260831015856 90 69 0.0 3.0 0.00 0.00 0.00 50 1015.7
20260831015353 90 63 0.0 1.0 0.00 0.00 0.00 50 1015.7
20260831014852 90 73 0.0 0.0 0.00 0.00 0.00 49 1015.7
20260831014347 90 88 0.0 1.0 0.00 0.00 0.00 48 1015.5
20260831013843 90 106 2.0 2.0 0.00 0.00 0.00 49 1015.5
20260831013338 90 66 0.0 0.0 0.00 0.00 0.00 49 1015.6
20260831012832 90 70 0.0 1.0 0.00 0.00 0.00 49 1015.7
20260831012328 91 69 0.0 0.0 0.00 0.00 0.00 49 1015.5
20260831011827 91 75 0.0 0.0 0.00 0.00 0.00 49 1015.5
20260831011322 91 64 1.0 1.0 0.00 0.00 0.00 47 1015.7
20260831010818 92 85 0.0 1.0 0.00 0.00 0.00 47 1015.7
20260831010318 92 99 2.0 2.0 0.00 0.00 0.00 47 1015.6
20260831005814 92 54 0.0 3.0 0.00 0.00 0.00 47 1015.6
20260831005309 93 66 0.0 1.0 0.00 0.00 0.00 47 1015.5
20260831004804 93 72 0.0 3.0 0.00 0.00 0.00 46 1015.4
20260831004300 93 89 2.0 7.0 0.00 0.00 0.00 45 1015.3
20260831003755 93 109 1.0 3.0 0.00 0.00 0.00 45 1015.3
20260831003251 93 100 1.0 2.0 0.00 0.00 0.00 45 1015.3
20260831002751 93 96 2.0 4.0 0.00 0.00 0.00 45 1015.2
20260831002245 94 74 1.0 2.0 0.00 0.00 0.00 44 1015.4
20260831001741 94 74 2.0 3.0 0.00 0.00 0.00 43 1015.2
20260831001236 94 40 1.0 2.0 0.00 0.00 0.00 43 1015.3
20260831000733 95 147 1.0 2.0 0.00 0.00 0.00 42 1015.2
20260831000228 95 77 0.0 1.0 0.00 0.00 0.00 42 1015.5
20260830235726 95 115 0.0 2.0 0.00 0.00 0.00 42 1015.3
20260830235221 95 134 2.0 4.0 0.00 0.00 0.00 40 1015.2
20260830234721 96 76 3.0 7.0 0.00 0.00 0.00 41 1015.3
20260830234218 96 153 4.0 6.0 0.00 0.00 0.00 41 1015.3
20260830233713 96 35 2.0 2.0 0.00 0.00 0.00 41 1015.2
20260830233208 96 64 0.0 3.0 0.00 0.00 0.00 42 1015.4
20260830232704 97 55 0.0 2.0 0.00 0.00 0.00 41 1015.3
20260830232159 97 49 1.0 1.0 0.00 0.00 0.00 39 1015.4
20260830231656 98 312 4.0 6.0 0.00 0.00 0.00 38 1015.2
20260830231155 99 100 1.0 2.0 0.00 0.00 0.00 38 1015.3
20260830230650 99 69 0.0 1.0 0.00 0.00 0.00 38 1015.2
20260830230145 99 59 1.0 3.0 0.00 0.00 0.00 38 1015.3
20260830225640 98 38 1.0 2.0 0.00 0.00 0.00 38 1015.3
20260830225135 98 143 3.0 3.0 0.00 0.00 0.00 38 1015.4
20260830224633 98 118 2.0 6.0 0.00 0.00 0.00 38 1015.5
20260830224129 99 84 3.0 3.0 0.00 0.00 0.00 37 1015.7
20260830223626 99 66 1.0 4.0 0.00 0.00 0.00 36 1015.6
20260830223126 99 64 0.0 2.0 0.00 0.00 0.00 36 1015.5
20260830222626 99 80 1.0 6.0 0.00 0.00 0.00 35 1015.6
20260830222122 99 87 0.0 3.0 0.00 0.00 0.00 35 1015.4
20260830221617 99 151 3.0 4.0 0.00 0.00 0.00 36 1015.6
20260830221113 99 82 1.0 2.0 0.00 0.00 0.00 37 1015.5
20260830220609 99 129 2.0 3.0 0.00 0.00 0.00 37 1015.7
20260830220108 99 96 2.0 2.0 0.00 0.00 0.00 35 1015.7
20260830215607 99 66 1.0 3.0 0.00 0.00 0.00 35 1015.8
20260830215101 100 94 1.0 2.0 0.00 0.00 0.00 36 1015.8
20260830214556 100 108 3.0 4.0 0.00 0.00 0.00 35 1015.8
20260830214051 99 88 4.0 7.0 0.00 0.00 0.00 35 1016.0
20260830213551 98 107 1.0 2.0 0.00 0.00 0.00 36 1015.9
20260830213046 97 76 1.0 2.0 0.00 0.00 0.00 38 1016.0
20260830212542 98 64 1.0 6.0 0.00 0.00 0.00 38 1016.0
20260830212037 99 63 1.0 4.0 0.00 0.00 0.00 39 1016.1
20260830211532 100 333 3.0 3.0 0.00 0.00 0.00 38 1016.2
20260830211031 100 77 1.0 3.0 0.00 0.00 0.00 37 1016.1
20260830210526 99 64 1.0 2.0 0.00 0.00 0.00 38 1016.1
20260830210020 100 55 0.0 2.0 0.00 0.00 0.00 37 1016.2
20260830205518 100 63 2.0 4.0 0.00 0.00 0.00 39 1016.3
20260830205014 99 112 2.0 4.0 0.00 0.00 0.00 38 1016.4
20260830204512 98 154 2.0 6.0 0.00 0.00 0.00 41 1016.6
20260830204007 99 106 1.0 2.0 0.00 0.00 0.00 40 1016.6
20260830203503 101 49 1.0 4.0 0.00 0.00 0.00 39 1016.7
20260830203003 101 85 2.0 6.0 0.00 0.00 0.00 39 1016.9
20260830202457 101 111 2.0 3.0 0.00 0.00 0.00 38 1016.9
20260830201954 101 127 2.0 3.0 0.00 0.00 0.00 37 1016.9
20260830201452 102 166 5.0 9.0 0.00 0.00 0.00 37 1017.1
20260830200948 103 74 1.0 4.0 0.00 0.00 0.00 37 1017.0
20260830200443 102 60 3.0 4.0 0.00 0.00 0.00 35 1017.4
20260830195942 101 52 1.0 2.0 0.00 0.00 0.00 37 1017.3
20260830195438 101 54 0.0 2.0 0.00 0.00 0.00 38 1017.5